Location: Avrigny
(46.8924°N, 0.4082°E)
Time: 13:47:08
(UTC+00:00)

Daily predictions for brighter satellites

Satellite Brightness Start Highest point End
(mag) Time Altitude Azimuth Time Altitude Azimuth Time Altitude Azimuth
ATLAS 2AS CENTAUR R/B 3.0 20:21:04 10° NW 20:28:07 67° WSW 20:34:40 10° SSE
Cosmos 1850 Rocket 4.4 20:25:38 10° NNW 20:30:44 50° ENE 20:35:44 10° SE
MetOp-B 4.3 20:25:28 10° SSE 20:30:45 63° ENE 20:36:03 10° N
PSLV R/B 3.9 20:28:00 10° NNE 20:32:10 81° ESE 20:36:21 10° SSW
Cosmos 1980 Rocket 3.7 20:28:27 10° N 20:33:05 25° NE 20:37:40 10° E
Cosmos 1697 Rocket 3.5 20:28:25 10° NNW 20:33:43 41° NE 20:39:00 10° SE
USA 32 4.1 20:29:44 10° S 20:34:54 69° E 20:40:06 10° N
SL-8 R/B 3.7 20:30:55 10° WNW 20:35:45 83° SSW 20:40:34 10° ESE
TSX-5 4.4 20:33:22 10° SSW 20:37:50 66° ESE 20:43:41 10° NE
SPOT 1/Viking Rocket 3.7 20:35:58 10° S 20:41:06 80° WSW 20:46:18 10° NNW
COSMOS 2406 4.3 20:38:17 10° SSE 20:42:51 25° ESE 20:47:24 10° NE
X-37B 0.5 20:41:14 10° W 20:43:59 54° S 20:46:45 10° ESE
Spot 2 Rocket 4.2 20:39:16 10° SE 20:44:00 42° ENE 20:48:48 10° N
Cosmos 1025 Rocket 3.9 20:40:27 10° SSW 20:44:38 53° WNW 20:48:52 10° N
SPOT 5 3.1 20:49:47 10° SE 20:53:57 44° ENE 20:58:03 10° N
Cosmos 1703 3.5 20:52:07 10° S 20:55:50 49° E 20:59:34 10° NNE
Cosmos 2084 Rocket 4.2 20:52:31 10° NNW 20:56:11 38° NE 20:59:58 10° ESE
RESURS DK-1 2.4 20:53:19 10° NNW 20:57:29 85° ENE 21:01:19 12° SSE
Cosmos 1452 Rocket 3.5 20:53:15 10° SSW 20:58:30 78° ESE 21:03:47 10° NNE
Cosmos 1833 Rocket 2.8 20:53:16 10° S 20:58:42 53° ESE 21:04:10 10° NE
Terra 2.6 20:56:28 11° SE 21:00:39 38° ENE 21:05:05 10° N
CZ-4B R/B 2.0 20:59:29 10° N 21:02:18 49° WNW 21:05:06 10° SSW
Cosmos 1110 Rocket 4.1 20:59:23 10° S 21:04:31 57° ESE 21:09:44 10° NNE
Helios 1A Rocket 3.3 21:01:06 12° SE 21:04:42 51° ENE 21:08:42 10° N
ERS-1 Rocket 3.2 21:02:33 12° SSE 21:07:10 56° ENE 21:12:06 10° N
Resurs 01 Rocket 3.1 21:03:38 10° SSW 21:07:43 35° W 21:11:49 10° NNW
Cosmos 2228 3.0 21:07:23 10° N 21:11:37 66° ENE 21:15:15 14° SSE
Cosmos 2184 Rocket 4.0 21:09:23 10° N 21:15:37 89° E 21:21:50 10° S
Cosmos 1408 4.3 21:16:14 14° ESE 21:17:32 17° E 21:19:48 10° NE
Lacrosse 5 3.7 21:13:47 10° WNW 21:17:38 22° WSW 21:21:29 10° S
IRAS Rocket 4.5 21:13:59 10° NNE 21:19:35 76° WNW 21:25:07 10° SSW
Cosmos 968 Rocket 4.1 21:17:39 10° NNW 21:22:39 44° ENE 21:26:36 16° SE
Cosmos 1900 4.4 21:17:33 10° NW 21:22:45 89° ENE 21:26:45 17° SSE
Cosmos 1328 4.2 21:22:05 15° SSE 21:25:06 46° E 21:28:57 10° NNE
USA 276 3.2 21:23:58 10° WNW 21:26:54 43° N 21:29:49 10° ENE
H-2A R/B 4.4 21:27:36 10° N 21:31:16 26° WNW 21:34:56 10° WSW
Cosmos 2360 4.3 21:25:33 10° NNW 21:31:19 82° WSW 21:35:50 17° SSE
Cosmos 1867 4.1 21:26:48 10° NNW 21:32:10 53° NE 21:36:30 15° ESE
Cosmos 2082 Rocket 2.6 21:27:22 11° S 21:32:33 42° ESE 21:37:53 10° NE
Cosmos 1455 4.4 21:29:50 10° NW 21:32:49 22° W 21:35:47 10° SW
USA 245 4.2 21:30:06 10° S 21:34:04 41° WSW 21:37:18 10° NNW
USA 267 3.9 21:32:16 10° ENE 21:37:55 30° SE 21:43:32 10° S
ARIANE 5 R/B 2.8 21:35:43 19° SSE 21:38:46 64° ENE 21:43:10 10° N
Cosmos 1606 Rocket 3.5 21:35:59 10° N 21:40:20 86° ENE 21:43:24 19° S
GP-B 4.1 21:37:25 10° NNE 21:41:23 31° E 21:43:34 20° SE
Cosmos 2341 Rocket 4.4 21:36:30 10° N 21:42:40 52° ENE 21:47:01 19° SE
Meteor 1-21 Rocket 4.3 21:37:40 10° SSW 21:43:16 84° W 21:49:01 10° N
Cosmos 192 4.3 21:43:00 11° S 21:47:43 69° ESE 21:52:36 10° NNE
SAR-Lupe-1 4.5 21:59:03 10° NNE 22:02:30 44° E 22:03:39 32° SSE
Cosmos 1726 Rocket 3.6 21:58:44 10° NNW 22:03:03 72° W 22:05:41 23° S
Cosmos 1892 2.9 22:02:06 30° SSE 22:03:36 52° E 22:07:18 10° NNE
Nadezhda 1 Rocket 4.4 22:04:03 10° SSW 22:10:01 58° WNW 22:16:02 10° N
Cosmos 2181 Rocket 4.2 22:07:22 23° SSE 22:11:07 55° E 22:17:11 10° NNE
Cosmos 1633 4.3 22:12:09 17° E 22:12:24 17° E 22:14:44 10° NE
USA 234 4.0 22:06:43 10° E 22:13:00 52° NNE 22:19:20 10° NW
SL-16 R/B 3.2 22:12:13 10° NNW 22:17:32 38° NE 22:21:23 17° ESE
Cosmos 1697 Rocket 3.8 22:12:34 10° NW 22:17:37 36° WSW 22:21:16 17° SSW
Cosmos 1980 Rocket 2.3 22:11:56 10° NNW 22:17:38 69° WSW 22:20:52 26° S
Cosmos 1992 Rocket 4.3 22:15:18 26° SSE 22:17:56 50° ESE 22:23:00 10° NNE
Cosmos 1486 Rocket 4.3 22:13:05 10° NNW 22:18:15 59° ENE 22:21:05 26° SE
X-37B 2.3 22:16:53 10° WSW 22:18:13 19° SW 22:18:13 19° SW
Cosmos 1932 4.4 22:13:39 11° SSW 22:19:34 65° ESE 22:25:50 10° NE
Cosmos 2369 4.0 22:15:35 10° NNW 22:21:13 58° WSW 22:24:30 25° S
TIMED 4.4 22:21:54 22° SSW 22:24:41 90° NE 22:29:04 10° NNE
COSMOS 2406 3.8 22:21:03 10° SW 22:26:43 59° WNW 22:32:26 10° NNE
Cosmos-2242 4.3 22:25:57 10° NNE 22:29:40 29° ENE 22:31:12 23° ESE
ATLAS 5 CENTAUR R/B 1.2 22:29:22 39° S 22:30:28 56° SE 22:34:31 10° NE
Cosmos 1602 Rocket 4.2 22:32:11 32° SE 22:33:22 38° E 22:37:23 10° NNE
In-Cosmos 22 Rocket 4.1 22:30:23 26° S 22:33:38 80° E 22:39:05 10° NNE
Cosmos 1869 3.3 22:30:03 10° N 22:33:57 69° E 22:35:09 41° SSE
Terra 3.4 22:35:21 14° SW 22:38:30 27° W 22:42:34 10° NW
Meteor 1-27 4.1 22:34:12 10° N 22:39:47 90° ESE 22:42:35 31° S
ALOS 2 3.7 22:39:48 24° ESE 22:41:36 34° ENE 22:45:36 10° N
FALCON 9 DEB 2.9 22:38:20 10° WNW 22:41:37 81° NNE 22:42:17 53° ESE
ASTEX 1 3.7 22:37:54 10° N 22:42:53 66° W 22:45:49 24° SSW
BREEZE-M DEB (TANK) 3.7 22:44:38 10° WNW 22:47:38 71° NNE 22:58:17 10° E
SL-8 Rocket 4.2 22:43:17 10° NNW 22:49:25 63° W 22:53:01 26° SSW
ADEOS Rocket 3.9 22:45:43 23° SE 22:50:21 57° ENE 22:57:54 10° N
Cosmos 2058 Rocket 4.1 22:46:23 10° NNW 22:50:31 39° W 22:52:35 24° SW
Cosmos 1825 2.1 22:49:40 43° SSW 22:50:46 76° W 22:54:33 10° N
Cosmos 1408 4.0 22:50:12 19° WSW 22:51:58 30° WNW 22:55:03 10° N
Cosmos 2322 Rocket 2.8 22:47:35 10° NNW 22:53:08 50° ENE 22:56:24 24° ESE
Cosmos 1503 Rocket 4.1 22:51:00 10° NNW 22:56:19 74° ENE 22:58:35 34° SE
Cosmos 1626 Rocket 3.5 22:54:44 37° SSW 22:56:23 80° W 23:00:45 10° N
USA 276 2.0 22:59:49 10° WNW 23:02:50 80° N 23:02:50 80° N
Cosmos 2278 4.1 22:58:22 10° NW 23:03:53 51° WSW 23:06:17 31° SSW
Cosmos 2333 Rocket 3.7 23:03:06 10° NNW 23:08:09 30° NE 23:12:52 11° ESE
Cosmos 2366 rocket 4.5 23:02:20 10° NNW 23:08:31 55° W 23:12:00 26° SSW
Cosmos 1825 Rocket 4.2 23:08:18 35° ESE 23:09:08 39° E 23:13:11 10° NNE
Gbstr 26 Del rocket 4.0 23:11:08 31° ESE 23:11:08 31° ESE 23:14:49 10° ENE
SJ 16-02 1.6 23:06:30 10° NNW 23:10:55 62° ENE 23:12:19 40° SE
Cosmos 1340 Rocket 4.0 23:13:04 26° E 23:13:24 27° E 23:16:46 10° NNE
Cosmos 2082 Rocket 3.6 23:11:28 10° WSW 23:16:43 36° NW 23:21:58 10° NNE
Meteor 2-20 4.4 23:13:53 33° S 23:16:47 83° E 23:22:53 10° N
H-2A R/B 3.4 23:15:48 10° NNE 23:20:00 71° ESE 23:20:55 51° SSE
USA 267 3.2 23:14:51 10° NE 23:21:25 88° NW 23:27:59 10° WSW
Cosmos 2221 3.9 23:22:57 10° N 23:26:48 29° ENE 23:28:17 24° ESE
Cosmos 2058 3.1 23:26:08 48° SE 23:26:53 56° E 23:30:59 10° NNE
Cosmos 1606 2.6 23:23:48 10° N 23:27:41 85° E 23:28:16 63° SSE
Cosmos 2360 Rocket 2.5 23:23:25 10° NNW 23:29:04 61° ENE 23:32:00 28° SE
Spot 4 4.2 23:27:39 37° SSW 23:29:10 53° W 23:33:53 10° NNW
Cosmos 1934 Rocket 4.2 23:24:14 10° N 23:30:15 59° ENE 23:33:06 31° SE
Cosmos 44 3.7 23:41:21 39° SE 23:41:38 39° ESE 23:45:50 10° NE
Meteor 2-2 Rocket 4.4 23:35:56 10° N 23:42:00 81° ENE 23:44:36 36° SSE
Cosmos 2237 4.2 23:39:02 10° NNW 23:44:46 73° WSW 23:46:53 40° S
Meteor 2-20 Rocket 4.4 23:42:26 35° SSW 23:45:12 84° W 23:51:21 10° N
Cosmos 1633 3.8 23:45:56 27° W 23:46:39 30° WNW 23:49:45 10° NNW
Cosmos 1758 Rocket 4.2 23:45:44 33° SW 23:47:11 47° WNW 23:51:28 10° N
